GW2923 Weather Reports


Display with metric or nautical units.
time (UTC)temp
F
wind
direction
speed
MPH
gust
MPH
rain 1hr
in
rain 24hr
in
rain mn
in
humidity
%
barometer
mb
20260903165533 54 249 2.0 5.0 0.00 0.00 0.00 80 1002.0
20260903165313 54 238 2.0 6.0 0.00 0.00 0.00 79 1001.9
20260903164548 55 248 3.0 6.0 0.00 0.00 0.00 79 1001.8
20260903164041 55 236 3.0 8.0 0.00 0.00 0.00 78 1001.9
20260903163530 55 267 3.0 9.0 0.00 0.00 0.00 77 1001.8
20260903163055 56 234 5.0 12.0 0.00 0.00 0.00 76 1002.0
20260903162531 56 247 3.0 12.0 0.00 0.00 0.00 75 1001.9
20260903162032 57 255 4.0 12.0 0.00 0.00 0.00 74 1001.8
20260903161555 57 284 5.0 14.0 0.00 0.00 0.00 73 1001.9
20260903161033 58 263 5.0 16.0 0.00 0.00 0.00 72 1001.9
20260903160530 59 232 8.0 16.0 0.00 0.00 0.00 71 1001.9
20260903160059 59 224 5.0 10.0 0.00 0.00 0.00 71 1001.8
20260903155536 60 198 5.0 10.0 0.00 0.00 0.00 72 1001.8
20260903155038 60 211 5.0 10.0 0.00 0.00 0.00 71 1001.9
20260903154554 60 255 4.0 11.0 0.00 0.00 0.00 71 1001.8
20260903154033 60 218 3.0 11.0 0.00 0.00 0.00 71 1001.9
20260903153529 59 224 6.0 13.0 0.00 0.00 0.00 70 1001.9
20260903153054 60 259 5.0 13.0 0.00 0.00 0.00 70 1001.9
20260903152530 60 230 5.0 11.0 0.00 0.00 0.00 69 1001.9
20260903152030 60 238 6.0 15.0 0.00 0.00 0.00 69 1001.9
20260903151604 60 243 5.0 15.0 0.00 0.00 0.00 67 1001.8
20260903151151 61 278 7.0 15.0 0.00 0.00 0.00 64 1001.9
20260903150530 61 228 7.0 15.0 0.00 0.00 0.00 68 1001.8
20260903150050 61 245 6.0 15.0 0.00 0.00 0.00 69 1001.8
20260903145532 60 247 3.0 12.0 0.00 0.00 0.00 74 1001.8
20260903145031 60 259 5.0 12.0 0.00 0.00 0.00 72 1001.7
20260903144544 61 275 4.0 12.0 0.00 0.00 0.00 72 1001.7
20260903144030 60 261 4.0 12.0 0.00 0.00 0.00 72 1001.8
20260903143530 60 260 5.0 13.0 0.00 0.00 0.00 73 1001.8
20260903143050 60 229 5.0 13.0 0.00 0.00 0.00 73 1001.9
20260903142530 61 251 5.0 11.0 0.00 0.00 0.00 70 1001.9
20260903142030 61 243 4.0 11.0 0.00 0.00 0.00 69 1001.8
20260903141550 60 276 4.0 12.0 0.00 0.00 0.00 68 1001.8
20260903141130 60 200 5.0 14.0 0.00 0.00 0.00 67 1001.7
20260903140534 61 224 8.0 16.0 0.00 0.00 0.00 65 1001.8
20260903140045 62 278 4.0 16.0 0.00 0.00 0.00 67 1001.8
20260903135532 62 274 6.0 16.0 0.00 0.00 0.00 63 1001.9
20260903135033 62 241 6.0 16.0 0.00 0.00 0.00 64 1001.7
20260903134553 62 216 4.0 16.0 0.00 0.00 0.00 63 1001.7
20260903134029 63 282 7.0 14.0 0.00 0.00 0.00 62 1001.7
20260903133534 63 219 5.0 15.0 0.00 0.00 0.00 60 1001.8
20260903133054 63 255 7.0 15.0 0.00 0.00 0.00 59 1001.7
20260903132529 64 263 5.0 15.0 0.00 0.00 0.00 57 1001.7
20260903132030 64 228 8.0 15.0 0.00 0.00 0.00 58 1001.7
20260903131556 64 240 6.0 14.0 0.00 0.00 0.00 57 1001.7
20260903131032 64 250 5.0 13.0 0.00 0.00 0.00 57 1001.8
20260903130536 64 166 6.0 16.0 0.00 0.00 0.00 59 1001.7
20260903130048 64 217 9.0 16.0 0.00 0.00 0.00 60 1001.7
20260903125532 64 236 8.0 15.0 0.00 0.00 0.00 58 1001.8
20260903125030 64 206 8.0 17.0 0.00 0.00 0.00 59 1001.7
20260903124610 64 192 7.0 17.0 0.00 0.00 0.00 59 1001.8
20260903124031 64 214 5.0 17.0 0.00 0.00 0.00 62 1001.7
20260903123531 63 277 6.0 17.0 0.00 0.00 0.00 67 1001.7
20260903123049 64 279 7.0 14.0 0.00 0.00 0.00 61 1001.6
20260903122532 64 227 5.0 16.0 0.00 0.00 0.00 63 1001.7
20260903122033 63 236 6.0 18.0 0.00 0.00 0.00 61 1001.7
20260903121547 64 234 9.0 18.0 0.00 0.00 0.00 60 1001.8
20260903121031 64 230 9.0 17.0 0.00 0.00 0.00 59 1001.8
20260903120534 64 260 8.0 13.0 0.00 0.00 0.00 64 1001.8
20260903115530 62 233 4.0 15.0 0.00 0.00 0.00 62 1001.7
20260903115030 64 255 8.0 15.0 0.00 0.00 0.00 59 1001.7
20260903114543 64 235 4.0 14.0 0.00 0.00 0.00 63 1001.6
20260903114033 64 259 4.0 16.0 0.00 0.00 0.00 62 1001.6
20260903113531 63 210 4.0 16.0 0.00 0.00 0.00 66 1001.7
20260903113057 63 237 8.0 16.0 0.00 0.00 0.00 65 1001.7
20260903112530 62 235 8.0 15.0 0.00 0.00 0.00 66 1001.7
20260903112032 61 235 7.0 14.0 0.00 0.00 0.00 69 1001.7
20260903111551 61 238 4.0 14.0 0.00 0.00 0.00 68 1001.8
20260903111032 62 232 8.0 15.0 0.00 0.00 0.00 66 1001.8
20260903110530 63 226 7.0 15.0 0.00 0.00 0.00 62 1001.7
20260903110048 64 212 9.0 15.0 0.00 0.00 0.00 60 1001.7
20260903105531 64 201 9.0 16.0 0.00 0.00 0.00 62 1001.7
20260903105034 64 199 10.0 16.0 0.00 0.00 0.00 63 1001.7
20260903104554 64 251 9.0 16.0 0.00 0.00 0.00 62 1001.7
20260903104031 64 220 9.0 16.0 0.00 0.00 0.00 62 1001.7
20260903103530 63 255 6.0 15.0 0.00 0.00 0.00 67 1001.8
20260903103054 61 252 6.0 14.0 0.00 0.00 0.00 68 1001.8
20260903102529 61 231 6.0 15.0 0.00 0.00 0.00 67 1001.8
20260903102033 62 234 7.0 15.0 0.00 0.00 0.00 66 1001.8
20260903101557 62 242 7.0 15.0 0.00 0.00 0.00 67 1001.8
20260903101035 64 245 6.0 15.0 0.00 0.00 0.00 66 1001.7
20260903100532 63 255 8.0 15.0 0.00 0.00 0.00 65 1001.8
20260903100052 62 237 7.0 14.0 0.00 0.00 0.00 68 1001.7
20260903095534 61 266 5.0 14.0 0.00 0.00 0.00 71 1001.7
20260903095032 62 251 6.0 14.0 0.00 0.00 0.00 70 1001.7
20260903094629 62 224 6.0 14.0 0.00 0.00 0.00 72 1001.8
20260903094035 64 249 8.0 14.0 0.00 0.00 0.00 67 1001.7
20260903093536 64 246 5.0 12.0 0.00 0.00 0.00 69 1001.7
20260903093051 63 222 5.0 12.0 0.00 0.00 0.00 68 1001.7
20260903092535 64 228 4.0 15.0 0.00 0.00 0.00 67 1001.7
20260903092035 63 226 6.0 16.0 0.00 0.00 0.00 70 1001.7
20260903091600 62 267 4.0 16.0 0.00 0.00 0.00 70 1001.8
20260903091038 62 234 8.0 16.0 0.00 0.00 0.00 68 1001.7
20260903090536 63 261 7.0 17.0 0.00 0.00 0.00 69 1001.6
20260903090052 63 251 7.0 17.0 0.00 0.00 0.00 68 1001.6
20260903085534 63 266 10.0 17.0 0.00 0.00 0.00 69 1001.6
20260903085032 63 182 8.0 15.0 0.00 0.00 0.00 71 1001.7
20260903084553 63 244 6.0 15.0 0.00 0.00 0.00 70 1001.6
20260903084033 62 230 7.0 18.0 0.00 0.00 0.00 72 1001.7
20260903083533 61 222 8.0 21.0 0.00 0.00 0.00 72 1001.7
20260903083048 61 234 9.0 21.0 0.00 0.00 0.00 72 1001.7
20260903082535 61 218 9.0 17.0 0.00 0.00 0.00 74 1001.7
20260903082035 62 205 8.0 15.0 0.00 0.00 0.00 72 1001.7
20260903081544 62 251 5.0 13.0 0.00 0.00 0.00 72 1001.7
20260903081034 62 238 5.0 12.0 0.00 0.00 0.00 76 1001.7
20260903080533 62 199 5.0 17.0 0.00 0.00 0.00 75 1001.7
20260903080100 62 254 6.0 17.0 0.00 0.00 0.00 76 1001.7
20260903075534 61 174 8.0 16.0 0.00 0.00 0.00 78 1001.7
20260903075034 61 223 7.0 16.0 0.00 0.00 0.00 79 1001.7
20260903074557 61 206 7.0 16.0 0.00 0.00 0.00 80 1001.7
20260903074033 60 242 6.0 18.0 0.00 0.00 0.00 81 1001.7
20260903073538 60 212 7.0 18.0 0.00 0.00 0.00 81 1001.8
20260903073053 60 220 7.0 18.0 0.00 0.00 0.00 81 1001.8
20260903072535 60 187 4.0 11.0 0.00 0.00 0.00 83 1001.7
20260903072035 60 195 3.0 11.0 0.00 0.00 0.00 85 1001.7
20260903071545 59 193 5.0 11.0 0.00 0.00 0.00 87 1001.7
20260903071034 59 160 4.0 14.0 0.00 0.00 0.00 86 1001.7
20260903070530 59 221 5.0 14.0 0.00 0.00 0.00 87 1001.7
20260903070045 58 206 3.0 9.0 0.00 0.00 0.00 87 1001.8
20260903065530 58 173 3.0 10.0 0.00 0.00 0.00 88 1001.6
20260903065029 57 184 5.0 10.0 0.00 0.00 0.00 88 1001.7
20260903064601 57 172 5.0 12.0 0.00 0.00 0.00 89 1001.8
20260903064033 57 162 6.0 13.0 0.00 0.00 0.00 89 1001.8
20260903063530 57 183 6.0 15.0 0.00 0.00 0.00 89 1001.7
20260903063051 57 178 5.0 15.0 0.00 0.00 0.00 90 1001.8
20260903062531 56 195 6.0 15.0 0.00 0.00 0.00 91 1001.7
20260903062030 56 207 7.0 14.0 0.00 0.00 0.00 90 1001.6
20260903061547 56 194 4.0 11.0 0.00 0.00 0.00 91 1001.6
20260903061030 56 175 4.0 14.0 0.00 0.00 0.00 91 1001.7
20260903060530 55 174 5.0 16.0 0.00 0.00 0.00 91 1001.7
20260903060044 55 197 6.0 16.0 0.00 0.00 0.00 92 1001.7
20260903055530 55 168 6.0 13.0 0.00 0.00 0.00 92 1001.7
20260903055029 55 172 6.0 12.0 0.00 0.00 0.00 92 1001.6
20260903054557 55 134 4.0 12.0 0.00 0.00 0.00 93 1001.7
20260903054030 54 137 5.0 12.0 0.00 0.00 0.00 93 1001.8
20260903053533 54 197 5.0 14.0 0.00 0.00 0.00 93 1001.8
20260903053054 54 157 6.0 14.0 0.00 0.00 0.00 93 1001.7
20260903052532 54 164 6.0 13.0 0.00 0.00 0.00 93 1001.8
20260903052031 54 144 5.0 13.0 0.00 0.00 0.00 94 1001.7
20260903051553 54 197 5.0 13.0 0.00 0.00 0.00 94 1001.8
20260903051029 54 224 7.0 13.0 0.00 0.00 0.00 94 1001.8
20260903050535 54 186 5.0 13.0 0.00 0.00 0.00 93 1001.8
20260903050056 53 149 7.0 13.0 0.00 0.00 0.00 93 1001.7
20260903045532 54 173 4.0 11.0 0.00 0.00 0.00 93 1001.7
20260903045033 54 218 6.0 11.0 0.00 0.00 0.00 93 1001.6
20260903044544 54 203 5.0 12.0 0.00 0.00 0.00 93 1001.7
20260903044030 54 164 7.0 15.0 0.00 0.00 0.00 94 1001.7
20260903043530 54 209 4.0 16.0 0.00 0.00 0.00 94 1001.7
20260903043043 54 193 6.0 16.0 0.00 0.00 0.00 94 1001.7
20260903042535 54 176 8.0 15.0 0.00 0.00 0.00 94 1001.6
20260903042032 54 178 6.0 14.0 0.00 0.00 0.00 94 1001.6
20260903041608 53 172 7.0 14.0 0.00 0.00 0.00 94 1001.6
20260903041033 53 209 6.0 13.0 0.00 0.00 0.00 94 1001.6
20260903040529 53 212 6.0 18.0 0.00 0.00 0.00 94 1001.6
20260903035533 53 217 4.0 13.0 0.00 0.00 0.00 93 1001.8
20260903035033 53 175 5.0 13.0 0.00 0.00 0.00 94 1001.7
20260903034601 53 172 7.0 15.0 0.00 0.00 0.00 94 1001.7
20260903034031 53 178 7.0 17.0 0.00 0.00 0.00 94 1001.8
20260903033530 53 187 6.0 17.0 0.00 0.00 0.00 94 1001.8
20260903033054 53 168 6.0 13.0 0.00 0.00 0.00 94 1001.8
20260903032531 53 164 5.0 13.0 0.00 0.00 0.00 94 1001.9
20260903032031 53 162 6.0 12.0 0.00 0.00 0.00 94 1001.8
20260903031551 53 184 5.0 11.0 0.00 0.00 0.00 94 1001.8
20260903031033 53 176 3.0 11.0 0.00 0.00 0.00 94 1001.9
20260903030532 53 169 4.0 10.0 0.00 0.00 0.00 94 1001.9
20260903030051 53 173 3.0 10.0 0.00 0.00 0.00 94 1001.9
20260903025532 53 202 4.0 11.0 0.00 0.00 0.00 94 1001.9
20260903025031 53 167 5.0 12.0 0.00 0.00 0.00 94 1001.8
20260903024547 53 182 3.0 12.0 0.00 0.00 0.00 94 1001.8
20260903024031 53 168 4.0 12.0 0.00 0.00 0.00 93 1001.9
20260903023531 53 187 4.0 12.0 0.00 0.00 0.00 93 1001.9
20260903023043 53 166 5.0 11.0 0.00 0.00 0.00 93 1001.9
20260903022530 53 201 5.0 10.0 0.00 0.00 0.00 93 1002.1
20260903022030 53 195 5.0 11.0 0.00 0.00 0.00 93 1002.1
20260903021552 53 180 4.0 12.0 0.00 0.00 0.00 93 1002.0
20260903021030 53 157 6.0 14.0 0.00 0.00 0.00 93 1002.0
20260903020531 53 191 6.0 16.0 0.00 0.00 0.00 93 1002.1
20260903020049 53 191 7.0 16.0 0.00 0.00 0.00 92 1002.2
20260903015535 53 182 5.0 14.0 0.00 0.00 0.00 92 1002.3
20260903015033 53 189 6.0 14.0 0.00 0.00 0.00 92 1002.2
20260903014550 53 158 6.0 12.0 0.00 0.00 0.00 92 1002.4
20260903014033 53 177 5.0 12.0 0.00 0.00 0.00 92 1002.3
20260903013533 54 187 6.0 14.0 0.00 0.00 0.00 92 1002.3
20260903013053 54 182 6.0 14.0 0.00 0.00 0.00 92 1002.2
20260903012530 54 182 5.0 12.0 0.00 0.00 0.00 92 1002.2
20260903012031 54 167 6.0 13.0 0.00 0.00 0.00 92 1002.2
20260903011554 54 188 7.0 13.0 0.00 0.00 0.00 92 1002.2
20260903011031 54 175 4.0 13.0 0.00 0.00 0.00 92 1002.3
20260903010531 54 190 6.0 11.0 0.00 0.00 0.00 92 1002.3
20260903010051 54 198 4.0 10.0 0.00 0.00 0.00 92 1002.4
20260903005529 54 174 5.0 12.0 0.00 0.00 0.00 92 1002.4
20260903005035 54 208 6.0 12.0 0.00 0.00 0.00 92 1002.5
20260903004555 54 183 6.0 13.0 0.00 0.00 0.00 92 1002.5
20260903004032 54 197 6.0 13.0 0.00 0.00 0.00 92 1002.5
20260903003533 54 189 5.0 12.0 0.00 0.00 0.00 92 1002.6
20260903003044 54 179 6.0 11.0 0.00 0.00 0.00 92 1002.7
20260903002531 54 194 5.0 11.0 0.00 0.00 0.00 93 1002.7
20260903002032 54 177 5.0 15.0 0.00 0.00 0.00 92 1002.7
20260903001557 54 191 5.0 15.0 0.00 0.00 0.00 92 1002.8
20260903001029 54 180 5.0 13.0 0.00 0.00 0.00 92 1002.7
20260903000529 54 163 4.0 13.0 0.00 0.00 0.00 92 1002.8
20260903000053 54 187 5.0 12.0 0.00 0.00 0.00 92 1002.8
20260902235532 54 176 4.0 12.0 0.00 0.00 0.00 92 1002.8
20260902235032 54 191 5.0 12.0 0.00 0.00 0.00 92 1002.9
20260902234547 54 211 4.0 11.0 0.00 0.00 0.00 92 1002.9
20260902234030 54 174 5.0 14.0 0.00 0.00 0.00 92 1002.9
20260902233533 54 178 5.0 14.0 0.00 0.00 0.00 92 1002.9
20260902233044 54 176 5.0 13.0 0.00 0.00 0.00 92 1002.9
20260902232533 54 179 5.0 16.0 0.00 0.00 0.00 92 1003.1
20260902232032 54 214 5.0 16.0 0.00 0.00 0.00 92 1003.1
20260902231543 54 208 4.0 12.0 0.00 0.00 0.00 92 1003.1
20260902231032 54 179 5.0 12.0 0.00 0.00 0.00 92 1003.1
20260902230532 54 155 4.0 10.0 0.00 0.00 0.00 92 1003.1
20260902230054 54 168 4.0 10.0 0.00 0.00 0.00 92 1003.2
20260902225533 54 177 4.0 10.0 0.00 0.00 0.00 92 1003.2
20260902225032 54 179 4.0 10.0 0.00 0.00 0.00 92 1003.3
20260902224554 54 184 5.0 14.0 0.00 0.00 0.00 92 1003.3
20260902224031 54 182 5.0 14.0 0.00 0.00 0.00 92 1003.3
20260902223532 54 174 5.0 12.0 0.00 0.00 0.00 92 1003.4
20260902223043 54 178 4.0 12.0 0.00 0.00 0.00 92 1003.4
20260902222530 54 191 6.0 12.0 0.00 0.00 0.00 91 1003.4
20260902222038 54 175 6.0 11.0 0.00 0.00 0.00 91 1003.4
20260902221554 54 199 4.0 12.0 0.00 0.00 0.00 91 1003.5
20260902221030 54 191 6.0 12.0 0.00 0.00 0.00 91 1003.5
20260902220529 54 174 5.0 11.0 0.00 0.00 0.00 91 1003.4
20260902220053 54 218 5.0 11.0 0.00 0.00 0.00 91 1003.6
20260902215531 54 192 4.0 11.0 0.00 0.00 0.00 91 1003.5
20260902215030 54 155 6.0 11.0 0.00 0.00 0.00 91 1003.6
20260902214542 54 146 5.0 11.0 0.00 0.00 0.00 90 1003.6
20260902214030 54 177 4.0 11.0 0.00 0.00 0.00 90 1003.6
20260902213530 54 202 4.0 12.0 0.00 0.00 0.00 90 1003.7
20260902213051 55 163 5.0 12.0 0.00 0.00 0.00 90 1003.7
20260902212530 55 153 3.0 9.0 0.00 0.00 0.00 90 1003.7
20260902212031 55 149 4.0 9.0 0.00 0.00 0.00 90 1003.8
20260902211544 55 187 4.0 10.0 0.00 0.00 0.00 90 1003.8
20260902211034 55 173 4.0 11.0 0.00 0.00 0.00 90 1003.8
20260902210534 55 160 4.0 14.0 0.00 0.00 0.00 90 1003.8
20260902210042 55 180 5.0 14.0 0.00 0.00 0.00 90 1003.8
20260902205529 55 166 3.0 11.0 0.00 0.00 0.00 89 1003.9
20260902205032 55 175 3.0 9.0 0.00 0.00 0.00 89 1003.9
20260902204550 55 209 4.0 9.0 0.00 0.00 0.00 89 1004.0
20260902204029 55 187 3.0 10.0 0.00 0.00 0.00 89 1004.0
20260902203531 55 182 3.0 10.0 0.00 0.00 0.00 89 1004.1
20260902203056 55 185 3.0 9.0 0.00 0.00 0.00 89 1004.3
20260902202530 55 204 3.0 10.0 0.00 0.00 0.00 88 1004.2
20260902202034 55 209 3.0 10.0 0.00 0.00 0.00 88 1004.2
20260902201549 55 192 4.0 10.0 0.00 0.00 0.00 88 1004.3
20260902201036 55 172 3.0 9.0 0.00 0.00 0.00 88 1004.2
20260902200531 55 177 3.0 8.0 0.00 0.00 0.00 88 1004.4
20260902200044 55 200 3.0 8.0 0.00 0.00 0.00 87 1004.3
20260902195531 55 197 3.0 9.0 0.00 0.00 0.00 87 1004.3
20260902195029 56 198 3.0 9.0 0.00 0.00 0.00 87 1004.4
20260902194600 56 168 2.0 7.0 0.00 0.00 0.00 87 1004.3
20260902194031 56 185 2.0 7.0 0.00 0.00 0.00 87 1004.4
20260902193531 56 214 2.0 7.0 0.00 0.00 0.00 87 1004.4
20260902193050 56 199 2.0 5.0 0.00 0.00 0.00 87 1004.5
20260902192531 56 180 2.0 9.0 0.00 0.00 0.00 86 1004.5
20260902192034 56 176 3.0 9.0 0.00 0.00 0.00 86 1004.5
20260902191558 57 212 2.0 9.0 0.00 0.00 0.00 85 1004.6
20260902191030 57 197 2.0 8.0 0.00 0.00 0.00 85 1004.6
20260902190536 57 198 2.0 6.0 0.00 0.00 0.00 85 1004.6
20260902190053 57 221 2.0 6.0 0.00 0.00 0.00 84 1004.7
20260902185530 57 213 3.0 6.0 0.00 0.00 0.00 84 1004.7
20260902185034 57 194 2.0 8.0 0.00 0.00 0.00 84 1004.6
20260902184605 57 0 1.0 11.0 0.00 0.00 0.00 84 1004.7
20260902184034 57 199 3.0 12.0 0.00 0.00 0.00 85 1004.8
20260902183536 57 232 4.0 12.0 0.00 0.00 0.00 85 1004.8
20260902183051 57 209 2.0 6.0 0.00 0.00 0.00 85 1004.8
20260902182530 57 236 2.0 6.0 0.00 0.00 0.00 85 1004.7
20260902182035 57 193 2.0 6.0 0.00 0.00 0.00 86 1004.8
20260902181606 57 222 2.0 9.0 0.00 0.00 0.00 86 1004.8
20260902181034 56 214 2.0 9.0 0.00 0.00 0.00 86 1004.9
20260902180531 56 209 1.0 9.0 0.00 0.00 0.00 86 1004.8
20260902180058 56 218 2.0 9.0 0.00 0.00 0.00 85 1004.8
20260902175533 57 174 3.0 7.0 0.00 0.00 0.00 84 1004.7
20260902175033 57 205 2.0 9.0 0.00 0.00 0.00 83 1004.8
20260902174549 57 232 3.0 9.0 0.00 0.00 0.00 83 1004.8
20260902174030 58 229 4.0 8.0 0.00 0.00 0.00 83 1004.9
20260902173531 58 203 1.0 6.0 0.00 0.00 0.00 83 1004.9
20260902173053 58 224 2.0 5.0 0.00 0.00 0.00 82 1004.9
20260902172531 59 207 2.0 8.0 0.00 0.00 0.00 82 1004.9
20260902172034 59 189 2.0 9.0 0.00 0.00 0.00 81 1005.1
20260902171614 59 226 4.0 12.0 0.00 0.00 0.00 81 1005.0
20260902171029 59 245 3.0 13.0 0.00 0.00 0.00 81 1005.1
20260902170530 59 195 5.0 13.0 0.00 0.00 0.00 81 1005.1
20260902170051 59 228 4.0 9.0 0.00 0.00 0.00 81 1005.2